Time,TemperatureF,DewpointF,PressureIn,WindDirection,WindDirectionDegrees,WindSpeedMPH,WindSpeedGustMPH,Humidity,HourlyPrecipIn,Conditions,Clouds,dailyrainin,SolarRadiationWatts/m^2,SoftwareType,DateUTC
2013-03-20 00:13:00,22.9,21.0,29.79,WSW,243,9.0,11.0,91,0.00,,,0.10,0,weatherlink.com 1.10,2013-03-20 04:13:00,
2013-03-20 00:28:00,22.9,20.0,29.78,West,261,8.0,13.0,89,0.00,,,0.10,0,weatherlink.com 1.10,2013-03-20 04:28:00,
2013-03-20 00:43:00,22.7,20.0,29.77,SW,231,6.0,14.0,89,0.00,,,0.10,0,weatherlink.com 1.10,2013-03-20 04:43:00,
2013-03-20 00:58:00,22.5,20.0,29.78,West,274,9.0,12.0,90,0.00,,,0.10,0,weatherlink.com 1.10,2013-03-20 04:58:00,
2013-03-20 01:13:00,22.3,20.0,29.77,West,264,13.0,16.0,89,0.00,,,0.10,0,weatherlink.com 1.10,2013-03-20 05:13:00,
2013-03-20 01:28:00,22.3,20.0,29.78,WSW,240,13.0,20.0,89,0.00,,,0.10,0,weatherlink.com 1.10,2013-03-20 05:28:00,
2013-03-20 01:43:00,22.1,19.0,29.77,WSW,254,11.0,17.0,89,0.00,,,0.10,0,weatherlink.com 1.10,2013-03-20 05:43:00,
2013-03-20 01:58:00,22.5,20.0,29.78,WSW,240,12.0,17.0,88,0.00,,,0.10,0,weatherlink.com 1.10,2013-03-20 05:58:00,
2013-03-20 02:13:00,22.4,19.0,29.77,West,266,9.0,18.0,88,0.00,,,0.10,0,weatherlink.com 1.10,2013-03-20 06:13:00,
2013-03-20 02:28:00,22.6,20.0,29.77,WSW,257,19.0,22.0,90,0.00,,,0.10,0,weatherlink.com 1.10,2013-03-20 06:28:00,
2013-03-20 02:44:00,22.9,20.0,29.77,West,275,9.0,18.0,88,0.00,,,0.10,0,weatherlink.com 1.10,2013-03-20 06:44:00,
2013-03-20 02:58:00,22.5,20.0,29.77,WSW,257,9.0,17.0,89,0.00,,,0.10,0,weatherlink.com 1.10,2013-03-20 06:58:00,
2013-03-20 03:13:00,22.4,20.0,29.77,West,261,10.0,18.0,89,0.00,,,0.10,0,weatherlink.com 1.10,2013-03-20 07:13:00,
2013-03-20 03:28:00,22.1,19.0,29.77,West,264,13.0,19.0,88,0.00,,,0.00,0,weatherlink.com 1.10,2013-03-20 07:28:00,
2013-03-20 03:44:00,21.8,19.0,29.76,West,269,12.0,15.0,88,0.00,,,0.00,0,weatherlink.com 1.10,2013-03-20 07:44:00,
2013-03-20 04:14:00,21.9,18.0,29.76,West,268,13.0,17.0,85,0.00,,,0.00,0,weatherlink.com 1.10,2013-03-20 08:14:00,
2013-03-20 04:29:00,21.6,20.0,29.76,WSW,241,12.0,18.0,92,0.00,,,0.00,0,weatherlink.com 1.10,2013-03-20 08:29:00,
2013-03-20 04:44:00,21.4,18.0,29.76,WSW,242,11.0,15.0,86,0.00,,,0.00,0,weatherlink.com 1.10,2013-03-20 08:44:00,
2013-03-20 04:59:00,21.0,18.0,29.77,WSW,248,9.0,14.0,86,0.00,,,0.00,0,weatherlink.com 1.10,2013-03-20 08:59:00,
2013-03-20 05:14:00,20.5,17.0,29.77,WSW,255,12.0,16.0,87,0.00,,,0.00,0,weatherlink.com 1.10,2013-03-20 09:14:00,
2013-03-20 05:29:00,20.1,17.0,29.77,WSW,244,8.0,16.0,87,0.00,,,0.00,0,weatherlink.com 1.10,2013-03-20 09:29:00,
2013-03-20 05:43:00,19.9,17.0,29.77,SW,234,10.0,15.0,88,0.00,,,0.00,0,weatherlink.com 1.10,2013-03-20 09:43:00,
2013-03-20 05:59:00,19.7,17.0,29.77,WSW,245,7.0,15.0,89,0.00,,,0.00,0,weatherlink.com 1.10,2013-03-20 09:59:00,
2013-03-20 06:14:00,19.7,17.0,29.78,WSW,244,9.0,14.0,89,0.00,,,0.00,0,weatherlink.com 1.10,2013-03-20 10:14:00,
2013-03-20 06:29:00,19.7,17.0,29.77,WSW,254,10.0,15.0,89,0.00,,,0.00,0,weatherlink.com 1.10,2013-03-20 10:29:00,
2013-03-20 06:44:00,20.2,18.0,29.78,WSW,256,10.0,18.0,89,0.00,,,0.00,0,weatherlink.com 1.10,2013-03-20 10:44:00,
2013-03-20 06:59:00,20.4,17.0,29.78,West,259,12.0,18.0,87,0.00,,,0.00,0,weatherlink.com 1.10,2013-03-20 10:59:00,
2013-03-20 07:14:00,20.3,17.0,29.78,West,260,12.0,18.0,87,0.00,,,0.00,14,weatherlink.com 1.10,2013-03-20 11:14:00,
2013-03-20 07:29:00,20.8,18.0,29.78,WSW,239,13.0,18.0,87,0.00,,,0.00,56,weatherlink.com 1.10,2013-03-20 11:29:00,
2013-03-20 07:44:00,21.7,18.0,29.78,West,259,13.0,17.0,86,0.00,,,0.00,79,weatherlink.com 1.10,2013-03-20 11:44:00,
2013-03-20 07:59:00,22.2,18.0,29.78,WSW,258,13.0,17.0,85,0.00,,,0.00,84,weatherlink.com 1.10,2013-03-20 11:59:00,
2013-03-20 08:14:00,22.4,18.0,29.78,WSW,238,11.0,17.0,84,0.00,,,0.00,113,weatherlink.com 1.10,2013-03-20 12:14:00,
2013-03-20 08:29:00,22.7,18.0,29.78,WSW,256,14.0,22.0,83,0.00,,,0.00,121,weatherlink.com 1.10,2013-03-20 12:29:00,
2013-03-20 08:44:00,23.1,19.0,29.78,West,261,8.0,23.0,83,0.00,,,0.00,165,weatherlink.com 1.10,2013-03-20 12:44:00,
2013-03-20 08:59:00,23.6,20.0,29.78,WSW,242,17.0,20.0,84,0.00,,,0.00,216,weatherlink.com 1.10,2013-03-20 12:59:00,
2013-03-20 09:14:00,24.4,21.0,29.78,West,261,12.0,19.0,85,0.00,,,0.00,283,weatherlink.com 1.10,2013-03-20 13:14:00,
2013-03-20 09:29:00,24.7,21.0,29.77,WSW,254,13.0,18.0,85,0.00,,,0.00,302,weatherlink.com 1.10,2013-03-20 13:29:00,
2013-03-20 09:45:00,25.2,22.0,29.78,WSW,242,12.0,17.0,86,0.00,,,0.00,329,weatherlink.com 1.10,2013-03-20 13:45:00,
2013-03-20 10:00:00,26.3,22.0,29.78,WSW,246,15.0,20.0,84,0.00,,,0.00,434,weatherlink.com 1.10,2013-03-20 14:00:00,
2013-03-20 10:15:00,26.4,22.0,29.78,WSW,258,14.0,18.0,84,0.00,,,0.00,376,weatherlink.com 1.10,2013-03-20 14:15:00,
2013-03-20 10:30:00,26.9,23.0,29.78,WSW,241,11.0,20.0,84,0.01,,,0.01,485,weatherlink.com 1.10,2013-03-20 14:30:00,
2013-03-20 10:45:00,28.0,24.0,29.78,WSW,257,15.0,20.0,83,0.01,,,0.01,489,weatherlink.com 1.10,2013-03-20 14:45:00,
2013-03-20 11:00:00,29.0,25.0,29.77,WSW,246,15.0,21.0,83,0.02,,,0.02,784,weatherlink.com 1.10,2013-03-20 15:00:00,
2013-03-20 11:15:00,29.5,24.0,29.77,West,259,15.0,20.0,80,0.02,,,0.02,622,weatherlink.com 1.10,2013-03-20 15:15:00,
2013-03-20 11:30:00,29.1,23.0,29.77,WSW,248,22.0,23.0,78,0.02,,,0.03,439,weatherlink.com 1.10,2013-03-20 15:30:00,
2013-03-20 11:45:00,28.5,22.0,29.77,West,261,19.0,26.0,78,0.03,,,0.04,861,weatherlink.com 1.10,2013-03-20 15:45:00,
2013-03-20 12:00:00,28.9,23.0,29.77,West,271,11.0,23.0,79,0.02,,,0.04,548,weatherlink.com 1.10,2013-03-20 16:00:00,
2013-03-20 12:15:00,28.8,23.0,29.77,West,269,9.0,21.0,78,0.03,,,0.05,332,weatherlink.com 1.10,2013-03-20 16:15:00,
2013-03-20 12:30:00,28.7,22.0,29.77,WSW,253,20.0,20.0,75,0.03,,,0.06,371,weatherlink.com 1.10,2013-03-20 16:30:00,
2013-03-20 12:45:00,29.1,21.0,29.77,West,271,12.0,20.0,73,0.02,,,0.06,633,weatherlink.com 1.10,2013-03-20 16:45:00,
2013-03-20 13:00:00,28.8,20.0,29.77,WSW,250,10.0,22.0,70,0.02,,,0.06,274,weatherlink.com 1.10,2013-03-20 17:00:00,
2013-03-20 13:15:00,29.4,21.0,29.78,NW,304,14.0,21.0,72,0.01,,,0.06,476,weatherlink.com 1.10,2013-03-20 17:15:00,
2013-03-20 13:30:00,29.3,20.0,29.77,West,263,11.0,20.0,68,0.00,,,0.06,399,weatherlink.com 1.10,2013-03-20 17:30:00,
2013-03-20 13:45:00,29.3,20.0,29.77,WSW,250,12.0,18.0,68,0.00,,,0.06,299,weatherlink.com 1.10,2013-03-20 17:45:00,
2013-03-20 14:00:00,30.6,23.0,29.77,West,276,12.0,19.0,72,0.00,,,0.06,492,weatherlink.com 1.10,2013-03-20 18:00:00,
2013-03-20 14:15:00,28.5,23.0,29.77,West,264,10.0,20.0,80,0.00,,,0.06,380,weatherlink.com 1.10,2013-03-20 18:15:00,
2013-03-20 14:30:00,28.6,22.0,29.77,West,275,11.0,18.0,75,0.00,,,0.06,359,weatherlink.com 1.10,2013-03-20 18:30:00,
2013-03-20 14:45:00,28.5,22.0,29.77,WSW,253,12.0,21.0,78,0.00,,,0.06,338,weatherlink.com 1.10,2013-03-20 18:45:00,
2013-03-20 15:00:00,30.7,23.0,29.77,WSW,257,18.0,20.0,72,0.00,,,0.06,264,weatherlink.com 1.10,2013-03-20 19:00:00,
2013-03-20 15:15:00,28.4,23.0,29.77,West,265,6.0,15.0,80,0.01,,,0.07,320,weatherlink.com 1.10,2013-03-20 19:15:00,
2013-03-20 15:30:00,28.2,24.0,29.77,West,268,5.0,16.0,84,0.01,,,0.07,538,weatherlink.com 1.10,2013-03-20 19:30:00,
2013-03-20 15:45:00,29.9,23.0,29.76,West,265,16.0,18.0,74,0.01,,,0.07,364,weatherlink.com 1.10,2013-03-20 19:45:00,
2013-03-20 16:00:00,29.3,22.0,29.78,West,266,8.0,23.0,75,0.01,,,0.07,336,weatherlink.com 1.10,2013-03-20 20:00:00,
2013-03-20 16:15:00,27.3,25.0,29.78,WNW,298,10.0,18.0,92,0.00,,,0.07,306,weatherlink.com 1.10,2013-03-20 20:15:00,
2013-03-20 16:30:00,27.1,23.0,29.77,West,269,12.0,17.0,83,0.00,,,0.07,202,weatherlink.com 1.10,2013-03-20 20:30:00,
2013-03-20 16:45:00,26.4,24.0,29.77,West,261,12.0,17.0,90,0.00,,,0.07,339,weatherlink.com 1.10,2013-03-20 20:45:00,
2013-03-20 17:00:00,27.8,24.0,29.77,SW,227,10.0,17.0,87,0.00,,,0.07,339,weatherlink.com 1.10,2013-03-20 21:00:00,
2013-03-20 17:15:00,28.5,24.0,29.78,WSW,244,12.0,20.0,83,0.00,,,0.07,172,weatherlink.com 1.10,2013-03-20 21:15:00,
2013-03-20 17:30:00,27.2,24.0,29.79,WSW,257,9.0,20.0,86,0.00,,,0.07,90,weatherlink.com 1.10,2013-03-20 21:30:00,
2013-03-20 17:45:00,27.0,24.0,29.78,West,279,2.0,8.0,88,0.00,,,0.07,107,weatherlink.com 1.10,2013-03-20 21:45:00,
2013-03-20 18:00:00,27.2,24.0,29.78,SW,223,4.0,9.0,87,0.00,,,0.07,316,weatherlink.com 1.10,2013-03-20 22:00:00,
2013-03-20 18:15:00,27.6,23.0,29.78,WNW,282,5.0,12.0,82,0.00,,,0.07,53,weatherlink.com 1.10,2013-03-20 22:15:00,
2013-03-20 18:30:00,26.7,22.0,29.79,WNW,299,3.0,5.0,83,0.00,,,0.07,26,weatherlink.com 1.10,2013-03-20 22:30:00,
2013-03-20 18:45:00,26.5,23.0,29.79,WNW,294,3.0,6.0,87,0.00,,,0.07,14,weatherlink.com 1.10,2013-03-20 22:45:00,
2013-03-20 19:00:00,26.0,23.0,29.79,WNW,293,3.0,10.0,89,0.00,,,0.07,11,weatherlink.com 1.10,2013-03-20 23:00:00,
2013-03-20 19:15:00,25.2,22.0,29.79,WSW,256,3.0,7.0,88,0.00,,,0.07,0,weatherlink.com 1.10,2013-03-20 23:15:00,
2013-03-20 19:30:00,23.9,21.0,29.79,WSW,251,4.0,5.0,89,0.00,,,0.07,0,weatherlink.com 1.10,2013-03-20 23:30:00,
2013-03-20 19:45:00,23.7,21.0,29.79,West,271,2.0,6.0,90,0.00,,,0.07,0,weatherlink.com 1.10,2013-03-20 23:45:00,
2013-03-20 20:00:00,23.0,20.0,29.79,WSW,246,5.0,6.0,89,0.00,,,0.07,0,weatherlink.com 1.10,2013-03-21 00:00:00,
2013-03-20 20:15:00,22.3,20.0,29.79,WSW,244,3.0,4.0,90,0.00,,,0.07,0,weatherlink.com 1.10,2013-03-21 00:15:00,
2013-03-20 20:30:00,23.0,20.0,29.80,WSW,250,3.0,6.0,89,0.00,,,0.07,0,weatherlink.com 1.10,2013-03-21 00:30:00,
2013-03-20 20:45:00,23.8,21.0,29.79,WSW,257,4.0,6.0,88,0.00,,,0.07,0,weatherlink.com 1.10,2013-03-21 00:45:00,
2013-03-20 21:00:00,23.5,21.0,29.80,WSW,251,1.0,6.0,88,0.00,,,0.07,0,weatherlink.com 1.10,2013-03-21 01:00:00,
2013-03-20 21:15:00,23.4,21.0,29.80,West,264,4.0,4.0,89,0.00,,,0.07,0,weatherlink.com 1.10,2013-03-21 01:15:00,
2013-03-20 21:30:00,23.3,21.0,29.80,West,261,2.0,5.0,89,0.00,,,0.07,0,weatherlink.com 1.10,2013-03-21 01:30:00,
2013-03-20 21:45:00,22.8,21.0,29.80,WSW,254,5.0,7.0,91,0.00,,,0.07,0,weatherlink.com 1.10,2013-03-21 01:45:00,
2013-03-20 22:00:00,21.0,19.0,29.80,WSW,251,4.0,7.0,91,0.00,,,0.07,0,weatherlink.com 1.10,2013-03-21 02:00:00,
2013-03-20 22:16:00,21.0,19.0,29.80,WSW,257,3.0,9.0,93,0.00,,,0.07,0,weatherlink.com 1.10,2013-03-21 02:16:00,
2013-03-20 22:30:00,22.4,21.0,29.80,WSW,240,7.0,8.0,93,0.00,,,0.07,0,weatherlink.com 1.10,2013-03-21 02:30:00,
2013-03-20 22:45:00,21.8,20.0,29.79,SW,231,3.0,8.0,92,0.00,,,0.07,0,weatherlink.com 1.10,2013-03-21 02:45:00,
2013-03-20 23:00:00,20.8,19.0,29.79,West,280,7.0,13.0,91,0.00,,,0.07,0,weatherlink.com 1.10,2013-03-21 03:00:00,
2013-03-20 23:15:00,20.8,18.0,29.79,WSW,246,6.0,11.0,90,0.00,,,0.07,0,weatherlink.com 1.10,2013-03-21 03:15:00,
2013-03-20 23:30:00,20.3,17.0,29.79,WSW,245,9.0,9.0,86,0.00,,,0.07,0,weatherlink.com 1.10,2013-03-21 03:30:00,
2013-03-20 23:46:00,20.9,17.0,29.80,WSW,252,10.0,13.0,84,0.00,,,0.07,0,weatherlink.com 1.10,2013-03-21 03:46:00,